[[{"header":{"parameterUnit":"m.s-1","parameterCategory":1,"la1":30.2991,"la2":30.254,"lo1":-89.0895,"lo2":-89.0444,"dy":0.0017,"dx":0.0017,"nx":28,"ny":28,"refTime":"2023-08-28T03:00:00:Z","depth":0,"parameterNumber":2,"parameterNumberName":"U-component_of_WINDS"},"data":[0,0,0,0,0,0,0,0,0,0,0,0,0,0,0,0,0,0,0,0,0,0,0,0,0,0,0,0,0,0,0,0,0,0,0,0,0,0,0,0,0,0,0,0,0,0,0,0,0,0,0,0,0,0,0,0,0,0,0.1428,0.1428,0,0.1433,0.1433,0.1433,0.143,0.143,0.143,0.143,0.1434,0.1435,0.1435,0,0,0,0,0,0,0,0,0,0,0,0,0,0.1415,0.1416,0.1428,0.1428,0.1428,0.1432,0.1433,0.1433,0.143,0.143,0.143,0.143,0.1434,0.1435,0.1435,0,0,0,0,0,0,0,0,0,0,0,0,0,0.142,0.1416,0.1428,0.1427,0.1427,0.1432,0.1433,0.1433,0.143,0.143,0.143,0.143,0.1434,0.1434,0.1435,0.1441,0,0,0.1436,0.1436,0,0,0,0,0,0,0,0,0.142,0.1421,0.1427,0.1427,0.1427,0.1431,0.143,0.1435,0.143,0.1429,0.143,0.143,0.1433,0.1434,0.1435,0.1441,0.1441,0.1436,0.1436,0.1436,0.1436,0,0,0,0,0,0,0,0.142,0.1421,0.1429,0.1427,0.1427,0.1426,0.1427,0.1431,0.1432,0.1429,0.1429,0.143,0.1433,0.1435,0.1435,0.1441,0.1436,0.1436,0.1436,0.1437,0.1452,0.1452,0,0,0,0,0,0,0.142,0.142,0.1429,0.143,0.1423,0.1427,0.1427,0.143,0.1432,0.1432,0.143,0.143,0.1434,0.1435,0.1435,0.1442,0.1436,0.1437,0.1437,0.1452,0.1452,0.1453,0,0,0,0,0,0,0.1419,0.142,0.1429,0.1425,0.1426,0.1427,0.143,0.143,0.1431,0.1433,0.1433,0.1431,0.1434,0.1435,0.1439,0.1442,0.1437,0.1437,0.1452,0.1452,0.1452,0.1456,0,0,0,0,0,0,0.1419,0.142,0.1423,0.1425,0.1426,0.1434,0.143,0.143,0.1432,0.1432,0.1434,0.1434,0.1434,0.1439,0.144,0.1443,0.1437,0.1452,0.1452,0.1452,0.1456,0.1457,0.1458,0,0,0,0,0,0.1419,0.1424,0.1423,0.1424,0.1429,0.1434,0.1434,0.1434,0.1432,0.1435,0.1435,0.1434,0.1442,0.1439,0.144,0.1443,0.1451,0.1452,0.1452,0.1456,0.1457,0.1458,0,0,0,0,0,0,0.1421,0.1424,0.1423,0.1429,0.1431,0.1433,0.1436,0.1435,0.1438,0.1438,0.1437,0.1438,0.1443,0.1443,0.1441,0.1449,0.1446,0.1447,0.1449,0.145,0.145,0.145,0.1438,0,0,0,0,0,0.1423,0.1426,0.1428,0.1433,0.1434,0.1435,0.1437,0.1437,0.1439,0.144,0.1441,0.1443,0.1446,0.1448,0.145,0.1456,0.1457,0.1459,0.146,0.146,0.1461,0.1464,0.1465,0.1454,0.1454,0.1454,0,0,0.1425,0.1427,0.1429,0.1434,0.1435,0.1439,0.1436,0.144,0.1442,0.144,0.1445,0.1446,0.1448,0.1453,0.1456,0.1454,0.1464,0.1461,0.1461,0.1461,0.1464,0.1465,0.1466,0.1454,0.1454,0.1454,0,0,0.1432,0.1434,0.1438,0.144,0.1443,0.1443,0.1444,0.1447,0.1447,0.1452,0.145,0.1453,0.1458,0.146,0.1461,0.1469,0.1467,0.147,0.1473,0.1477,0.1477,0.1478,0.1481,0.1482,0.147,0.147,0.147,0,0.1435,0.1441,0.1441,0.1445,0.1447,0.1445,0.145,0.1451,0.1454,0.1456,0.1454,0.146,0.1462,0.1467,0.1469,0.147,0.1471,0.1469,0.1477,0.1478,0.1479,0.1481,0.1482,0.147,0.147,0.147,0.147,0,0.1444,0.1448,0.1451,0.1455,0.1457,0.1461,0.1462,0.1464,0.1463,0.1464,0.1469,0.147,0.1473,0.1474,0.1474,0.148,0.1479,0.1477,0.1474,0.148,0.1482,0.1483,0.1471,0.1471,0.1471,0.1471,0,0,0.1453,0.1457,0.1458,0.1459,0.1462,0.1465,0.1469,0.1472,0.1474,0.1476,0.1479,0.1484,0.1482,0.1484,0.1483,0.1486,0.1492,0.1484,0.1484,0.1485,0.1499,0.15,0.1501,0.1491,0.1491,0.1491,0.1498,0,0.146,0.1467,0.1468,0.1474,0.1478,0.1476,0.148,0.1482,0.1482,0.1485,0.1486,0.1489,0.1486,0.1487,0.149,0.1491,0.1494,0.149,0.1494,0.1494,0.1493,0.1502,0.1504,0.151,0.1499,0.1499,0.15,0,0.1469,0.1472,0.1479,0.1481,0.1483,0.1486,0.1489,0.1492,0.1494,0.1494,0.1496,0.1495,0.1499,0.1496,0.1501,0.1498,0.15,0.15,0.15,0.1501,0.1497,0.1503,0.1512,0.1513,0.1501,0.1501,0.1501,0,0.1475,0.1481,0.1486,0.1487,0.149,0.1492,0.1493,0.1495,0.1497,0.1499,0.1501,0.1503,0.1505,0.1507,0.1507,0.1505,0.1512,0.1509,0.1512,0.1512,0.1514,0.1514,0.1524,0.1515,0.1515,0.1515,0.1515,0,0.1483,0.1487,0.1488,0.1491,0.1496,0.1496,0.1501,0.1502,0.1503,0.1506,0.1505,0.1508,0.1508,0.151,0.151,0.1515,0.1515,0.1516,0.1516,0.1516,0.1516,0.1517,0.1516,0.1515,0.1515,0.1515,0.1515,0,0.149,0.1491,0.1496,0.1498,0.1499,0.1503,0.1504,0.1507,0.1508,0.1511,0.1512,0.1513,0.1516,0.1517,0.152,0.152,0.1525,0.1525,0.1525,0.1525,0.1528,0.1528,0.1539,0.1541,0.1531,0.1531,0.1531,0,0.1495,0.1499,0.1501,0.1503,0.1505,0.1508,0.151,0.151,0.1512,0.1515,0.1517,0.152,0.1523,0.1528,0.1529,0.1532,0.1531,0.1535,0.1531,0.1532,0.1531,0.1531,0.1531,0.1536,0.1536,0.1536,0.1536,0,0.1504,0.1504,0.1507,0.1511,0.1513,0.1516,0.1518,0.152,0.152,0.1522,0.1526,0.1528,0.1531,0.1535,0.1537,0.1538,0.1537,0.1537,0.1538,0.1538,0.1538,0.1538,0.1527,0.1537,0.1537,0.1537,0.1536,0.1536,0.151,0.1513,0.1516,0.1519,0.1521,0.1523,0.1526,0.1527,0.153,0.1533,0.1533,0.1536,0.1538,0.1542,0.1543,0.1546,0.1545,0.1546,0.1546,0.1547,0.1547,0.1538,0.1546,0.1546,0.1546,0.1546,0.1546,0,0.1519,0.1521,0.1524,0.1527,0.153,0.1529,0.1531,0.1533,0.1537,0.1539,0.1541,0.1545,0.1548,0.1549,0.1552,0.1554,0.1554,0.1555,0.1555,0.1555,0.1548,0.1547,0.1555,0.1555,0.1555,0.1555,0.1555,0.1555,0.1524,0.1529,0.1529,0.1535,0.1536,0.154,0.1542,0.1544,0.1545,0.155,0.1552,0.1553,0.1555,0.1558,0.156,0.1561,0.1562,0.1563,0.1563,0.1556,0.1556,0.1555,0.1554,0.1563,0.1563,0.157,0.157,0.157]},{"header":{"parameterUnit":"m.s-1","parameterCategory":1,"la1":30.2991,"la2":30.254,"lo1":-89.0895,"lo2":-89.0444,"dy":0.0017,"dx":0.0017,"nx":28,"ny":28,"refTime":"2023-08-28T03:00:00:Z","depth":0,"parameterNumber":3,"parameterNumberName":"V-component_of_WINDS"},"data":[0,0,0,0,0,0,0,0,0,0,0,0,0,0,0,0,0,0,0,0,0,0,0,0,0,0,0,0,0,0,0,0,0,0,0,0,0,0,0,0,0,0,0,0,0,0,0,0,0,0,0,0,0,0,0,0,0,0,-1.1354,-1.1354,0,-1.134,-1.134,-1.134,-1.1323,-1.1323,-1.1323,-1.1322,-1.1308,-1.1308,-1.1307,0,0,0,0,0,0,0,0,0,0,0,0,0,-1.1367,-1.1367,-1.1354,-1.1354,-1.1354,-1.134,-1.134,-1.134,-1.1323,-1.1323,-1.1323,-1.1322,-1.1308,-1.1308,-1.1307,0,0,0,0,0,0,0,0,0,0,0,0,0,-1.1358,-1.1367,-1.1354,-1.1344,-1.1343,-1.134,-1.134,-1.134,-1.1323,-1.1323,-1.1322,-1.1322,-1.1308,-1.1308,-1.1307,-1.1314,0,0,-1.1307,-1.1307,0,0,0,0,0,0,0,0,-1.1359,-1.1358,-1.1346,-1.1345,-1.1343,-1.1333,-1.1339,-1.1331,-1.1323,-1.1331,-1.1322,-1.1322,-1.1316,-1.1315,-1.1314,-1.1313,-1.1312,-1.1307,-1.1307,-1.1306,-1.1306,0,0,0,0,0,0,0,-1.1359,-1.1358,-1.1349,-1.1345,-1.1344,-1.134,-1.1338,-1.1337,-1.1326,-1.133,-1.1329,-1.1327,-1.1316,-1.1314,-1.1313,-1.1312,-1.1307,-1.1307,-1.1306,-1.1306,-1.1316,-1.1316,0,0,0,0,0,0,-1.1362,-1.1359,-1.1349,-1.1348,-1.135,-1.134,-1.1338,-1.1337,-1.1326,-1.1324,-1.1328,-1.1327,-1.1315,-1.1313,-1.1313,-1.1319,-1.1306,-1.1306,-1.1306,-1.1315,-1.1316,-1.1316,0,0,0,0,0,0,-1.1362,-1.1361,-1.135,-1.1353,-1.1351,-1.134,-1.1339,-1.1337,-1.1335,-1.1324,-1.1322,-1.1328,-1.1314,-1.1313,-1.1314,-1.1318,-1.1306,-1.1306,-1.1315,-1.1316,-1.1316,-1.1332,0,0,0,0,0,0,-1.1362,-1.1361,-1.1363,-1.1353,-1.1351,-1.1351,-1.1339,-1.1337,-1.1334,-1.1333,-1.1324,-1.1322,-1.1314,-1.1314,-1.1313,-1.1318,-1.1306,-1.1314,-1.1315,-1.1316,-1.1331,-1.1333,-1.1335,0,0,0,0,0,-1.1363,-1.1368,-1.1363,-1.1362,-1.1354,-1.1351,-1.135,-1.134,-1.1335,-1.1337,-1.133,-1.1322,-1.1318,-1.1314,-1.1313,-1.1318,-1.1314,-1.1315,-1.1316,-1.133,-1.1333,-1.1335,0,0,0,0,0,0,-1.1379,-1.1367,-1.1361,-1.1363,-1.1358,-1.1348,-1.135,-1.1343,-1.134,-1.1339,-1.1327,-1.1325,-1.1327,-1.1323,-1.1318,-1.1323,-1.1315,-1.1316,-1.1326,-1.1328,-1.133,-1.1331,-1.1306,0,0,0,0,0,-1.1382,-1.1381,-1.1371,-1.1374,-1.1371,-1.1362,-1.136,-1.1353,-1.1348,-1.1345,-1.1339,-1.1333,-1.1331,-1.1329,-1.1327,-1.1331,-1.1328,-1.1333,-1.1335,-1.1337,-1.1337,-1.1339,-1.1341,-1.1319,-1.1319,-1.1319,0,0,-1.139,-1.1383,-1.1383,-1.1377,-1.1372,-1.1371,-1.136,-1.1359,-1.1358,-1.1345,-1.1345,-1.134,-1.1334,-1.1336,-1.1337,-1.1332,-1.1343,-1.1338,-1.1339,-1.1339,-1.134,-1.1343,-1.1344,-1.132,-1.132,-1.132,0,0,-1.1403,-1.1398,-1.14,-1.1396,-1.1389,-1.1382,-1.1383,-1.1374,-1.137,-1.137,-1.136,-1.1359,-1.1355,-1.1351,-1.1348,-1.1361,-1.1353,-1.136,-1.137,-1.1372,-1.1374,-1.1375,-1.138,-1.1382,-1.1361,-1.1361,-1.1361,0,-1.1414,-1.1412,-1.1402,-1.1402,-1.14,-1.1388,-1.139,-1.1386,-1.1379,-1.1377,-1.1373,-1.1368,-1.1362,-1.1364,-1.1367,-1.1365,-1.1365,-1.1361,-1.1375,-1.1376,-1.1377,-1.1381,-1.1383,-1.1362,-1.1362,-1.1362,-1.1362,0,-1.1425,-1.1424,-1.1426,-1.1419,-1.1417,-1.1418,-1.1409,-1.1408,-1.1402,-1.1396,-1.1396,-1.1389,-1.1385,-1.1385,-1.1379,-1.1386,-1.1383,-1.1377,-1.1368,-1.138,-1.1384,-1.1385,-1.1363,-1.1363,-1.1363,-1.1363,0,0,-1.1447,-1.1435,-1.1436,-1.1433,-1.1425,-1.1424,-1.1425,-1.1421,-1.142,-1.1416,-1.1416,-1.1413,-1.1407,-1.1404,-1.1398,-1.1399,-1.141,-1.1393,-1.1392,-1.1396,-1.1417,-1.1421,-1.1423,-1.1405,-1.1405,-1.1405,-1.1417,0,-1.1458,-1.1459,-1.145,-1.1453,-1.1452,-1.1441,-1.1442,-1.1437,-1.1432,-1.143,-1.1424,-1.1423,-1.1415,-1.1413,-1.1415,-1.1408,-1.1414,-1.1407,-1.1405,-1.1405,-1.1407,-1.1425,-1.143,-1.1441,-1.1419,-1.1419,-1.1419,0,-1.1472,-1.1468,-1.1471,-1.1463,-1.1462,-1.1463,-1.1459,-1.1457,-1.1452,-1.1448,-1.1445,-1.1438,-1.1438,-1.143,-1.143,-1.1426,-1.1425,-1.1422,-1.1422,-1.1421,-1.1412,-1.1425,-1.1445,-1.1446,-1.1421,-1.1421,-1.1421,0,-1.1487,-1.1483,-1.1484,-1.1482,-1.1473,-1.1474,-1.147,-1.1464,-1.1462,-1.1459,-1.1458,-1.1454,-1.1452,-1.145,-1.1442,-1.1437,-1.1443,-1.1435,-1.144,-1.144,-1.1441,-1.1441,-1.1461,-1.1441,-1.1441,-1.1441,-1.1441,0,-1.1501,-1.1503,-1.1491,-1.1492,-1.1494,-1.1485,-1.1487,-1.1482,-1.1477,-1.1477,-1.1468,-1.1468,-1.1457,-1.1456,-1.145,-1.1451,-1.145,-1.1447,-1.1445,-1.1448,-1.1448,-1.1446,-1.1445,-1.1441,-1.1441,-1.1441,-1.1441,0,-1.1518,-1.1511,-1.1511,-1.1503,-1.1501,-1.1502,-1.1495,-1.1496,-1.149,-1.149,-1.1489,-1.148,-1.1478,-1.147,-1.1467,-1.1462,-1.1466,-1.1462,-1.1468,-1.1466,-1.1472,-1.1471,-1.1491,-1.1493,-1.1472,-1.1472,-1.1473,0,-1.1527,-1.1528,-1.152,-1.1519,-1.1516,-1.1515,-1.1513,-1.1504,-1.1503,-1.1497,-1.1498,-1.1496,-1.1493,-1.1491,-1.1484,-1.1481,-1.1478,-1.1485,-1.1477,-1.148,-1.1478,-1.1477,-1.1478,-1.1486,-1.1487,-1.1487,-1.1487,0,-1.1544,-1.154,-1.1538,-1.1535,-1.1533,-1.153,-1.1526,-1.1526,-1.1516,-1.1515,-1.1513,-1.1511,-1.1508,-1.1505,-1.1502,-1.1498,-1.1491,-1.149,-1.1491,-1.1493,-1.1496,-1.1494,-1.1472,-1.1489,-1.1489,-1.1489,-1.1489,-1.1489,-1.1557,-1.1558,-1.1552,-1.155,-1.1547,-1.1544,-1.1544,-1.1538,-1.1537,-1.1533,-1.1528,-1.1527,-1.1522,-1.1516,-1.1513,-1.1512,-1.1508,-1.1509,-1.151,-1.151,-1.1511,-1.1496,-1.1511,-1.1511,-1.1511,-1.1511,-1.1511,0,-1.1573,-1.1569,-1.1567,-1.1563,-1.1561,-1.1555,-1.1551,-1.155,-1.1549,-1.1545,-1.1543,-1.1541,-1.1539,-1.1533,-1.153,-1.153,-1.1527,-1.153,-1.1529,-1.1529,-1.1515,-1.1514,-1.1532,-1.1532,-1.1532,-1.1532,-1.1532,-1.1532,-1.1581,-1.1582,-1.1578,-1.1577,-1.1573,-1.1572,-1.157,-1.1567,-1.1564,-1.1562,-1.1561,-1.1556,-1.1552,-1.1548,-1.1546,-1.1544,-1.1544,-1.1548,-1.1545,-1.1532,-1.153,-1.1528,-1.1527,-1.1548,-1.1548,-1.1558,-1.1558,-1.1559]}]]